START_TIME,STEP,MOV.,M15,t_acc.,M20,t_acc.
1981-08-30 21:01:25.200 ,0,0,0.,24.0,0.,24.0
1981-08-30 21:01:32.400 ,0,0,0.,24.0,0.,24.0
1981-08-30 21:01:56.400 ,5,1,0.,24.0,0.,24.0
1981-08-30 21:02:20.400 ,5,0,0.,24.0,0.,24.0
1981-08-30 21:02:44.400 ,4,1,0.,24.0,0.,24.0
1981-08-30 21:03:08.400 ,4,0,0.,24.0,0.,24.0
1981-08-30 21:03:32.400 ,3,1,0.,24.0,0.,24.0
1981-08-30 21:03:56.400 ,3,0,0.,24.0,0.,24.0
1981-08-30 21:04:20.400 ,2,1,0.,24.0,0.,24.0
1981-08-30 21:04:44.400 ,2,0,0.,24.0,0.,24.0
1981-08-30 21:05:08.400 ,1,1,0.,24.0,0.,24.0
1981-08-30 21:05:32.400 ,1,0,0.,24.0,0.,24.0
1981-08-30 21:05:56.400 ,0,1,0.,24.0,0.,24.0
1981-08-30 21:06:20.400 ,0,0,0.,24.0,0.,24.0
1981-08-30 21:06:44.400 ,0,1,0.,24.0,0.,24.0
1981-08-30 21:07:08.400 ,0,0,0.,24.0,0.,24.0
1981-08-30 21:07:32.400 ,1,1,0.,24.0,0.,24.0
1981-08-30 21:07:56.400 ,1,0,0.,24.0,0.,24.0
1981-08-30 21:08:20.400 ,2,1,0.,24.0,0.,24.0
1981-08-30 21:08:44.400 ,2,0,0.,24.0,0.,24.0
1981-08-30 21:09:08.400 ,3,1,0.,24.0,0.,24.0
1981-08-30 21:09:32.400 ,4,1,0.,24.0,0.,24.0
1981-08-30 21:09:56.400 ,5,1,0.,24.0,0.,24.0
1981-08-30 21:10:20.400 ,6,1,0.,24.0,0.,24.0
1981-08-30 21:10:44.400 ,7,1,0.,24.0,0.,24.0
1981-08-30 21:11:08.400 ,7,1,0.,24.0,0.,24.0
1981-08-30 21:11:32.400 ,6,1,0.,24.0,0.,24.0
1981-08-30 21:11:56.400 ,5,1,0.,24.0,0.,24.0
1981-08-30 21:12:20.400 ,4,1,0.,24.0,0.,24.0
1981-08-30 21:12:44.400 ,3,1,0.,24.0,0.,24.0
1981-08-30 21:13:08.400 ,2,1,0.,24.0,0.,24.0
1981-08-30 21:13:32.400 ,1,1,0.,24.0,0.,24.0
1981-08-30 21:13:56.400 ,0,1,0.,24.0,0.,24.0
1981-08-30 21:14:20.400 ,0,1,0.,24.0,0.,24.0
1981-08-30 21:14:44.400 ,1,1,0.,24.0,0.,24.0
1981-08-30 21:15:08.400 ,2,1,0.,24.0,0.,24.0
1981-08-30 21:15:32.400 ,3,1,0.,24.0,0.,24.0
1981-08-30 21:15:56.400 ,3,0,0.,24.0,0.,24.0
1981-08-30 21:16:20.400 ,4,1,0.,24.0,0.,24.0
1981-08-30 21:16:44.400 ,4,0,0.,24.0,0.,24.0
1981-08-30 21:17:08.400 ,5,1,0.,24.0,0.,24.0
1981-08-30 21:17:32.400 ,5,0,0.,24.0,0.,24.0
1981-08-30 21:17:56.400 ,6,1,0.,24.0,0.,24.0
1981-08-30 21:18:20.400 ,6,0,0.,24.0,0.,24.0
1981-08-30 21:18:44.400 ,7,1,0.,24.0,0.,24.0
1981-08-30 21:19:08.400 ,7,0,0.,24.0,0.,24.0
1981-08-30 21:19:32.400 ,7,1,0.,24.0,0.,24.0
1981-08-30 21:19:56.400 ,7,0,0.,24.0,0.,24.0
1981-08-30 21:20:20.400 ,6,1,0.,24.0,0.,24.0
1981-08-30 21:20:44.400 ,6,0,0.,24.0,0.,24.0
1981-08-30 21:21:08.400 ,5,1,0.,24.0,0.,24.0
1981-08-30 21:21:32.400 ,5,0,0.,24.0,0.,24.0
1981-08-30 21:21:56.400 ,4,1,0.,24.0,0.,24.0
1981-08-30 21:22:20.400 ,4,0,0.,24.0,0.,24.0
1981-08-30 21:22:44.400 ,3,1,0.,24.0,0.,24.0
1981-08-30 21:23:08.400 ,3,0,0.,24.0,0.,24.0
1981-08-30 21:23:32.400 ,2,1,0.,24.0,0.,24.0
1981-08-30 21:23:56.400 ,2,0,0.,24.0,0.,24.0
1981-08-30 21:24:20.400 ,1,1,0.,24.0,0.,24.0
1981-08-30 21:24:44.400 ,1,0,0.,24.0,0.,24.0
1981-08-30 21:25:08.400 ,0,1,0.,24.0,0.,24.0
1981-08-30 21:25:32.400 ,0,0,0.,24.0,0.,24.0
1981-08-30 21:25:56.400 ,0,1,0.,24.0,0.,24.0
1981-08-30 21:26:20.400 ,0,0,0.,24.0,0.,24.0
1981-08-30 21:26:44.400 ,1,1,0.,24.0,0.,24.0
1981-08-30 21:27:08.400 ,1,0,0.,24.0,0.,24.0
1981-08-30 21:27:32.400 ,2,1,0.,24.0,0.,24.0
1981-08-30 21:27:56.400 ,2,0,0.,24.0,0.,24.0
1981-08-30 21:28:20.400 ,3,1,0.,24.0,0.,24.0
1981-08-30 21:28:44.400 ,4,1,0.,24.0,0.,24.0
1981-08-30 21:29:08.400 ,5,1,0.,24.0,0.,24.0
1981-08-30 21:29:32.400 ,6,1,0.,24.0,0.,24.0
1981-08-30 21:29:56.400 ,7,1,0.,24.0,0.,24.0
1981-08-30 21:30:20.400 ,7,1,0.,24.0,0.,24.0
1981-08-30 21:30:44.400 ,6,1,0.,24.0,0.,24.0
1981-08-30 21:31:08.400 ,5,1,0.,24.0,0.,24.0
1981-08-30 21:31:32.400 ,4,1,0.,24.0,0.,24.0
1981-08-30 21:31:56.400 ,3,1,0.,24.0,0.,24.0
1981-08-30 21:32:20.400 ,2,1,0.,24.0,0.,24.0
1981-08-30 21:32:44.400 ,1,1,0.,24.0,0.,24.0
1981-08-30 21:33:08.400 ,0,1,0.,24.0,0.,24.0
1981-08-30 21:33:32.400 ,0,1,0.,24.0,0.,24.0
1981-08-30 21:33:56.400 ,1,1,0.,24.0,0.,24.0
1981-08-30 21:34:20.400 ,2,1,0.,24.0,0.,24.0
1981-08-30 21:34:44.400 ,3,1,0.,24.0,0.,24.0
1981-08-30 21:35:08.400 ,3,0,0.,24.0,0.,24.0
1981-08-30 21:35:32.400 ,4,1,0.,24.0,0.,24.0
1981-08-30 21:35:56.400 ,4,0,0.,24.0,0.,24.0
1981-08-30 21:36:20.400 ,5,1,0.,24.0,0.,24.0
1981-08-30 21:36:44.400 ,5,0,0.,24.0,0.,24.0
1981-08-30 21:37:08.400 ,6,1,0.,24.0,0.,24.0
1981-08-30 21:37:32.400 ,6,0,0.,24.0,0.,24.0
1981-08-30 21:37:56.400 ,7,1,0.,24.0,0.,24.0
1981-08-30 21:38:20.400 ,7,0,0.,24.0,0.,24.0
1981-08-30 21:38:44.400 ,7,1,0.,24.0,0.,24.0
1981-08-30 21:39:08.400 ,7,0,0.,24.0,0.,24.0
1981-08-30 21:39:32.400 ,6,1,0.,24.0,0.,24.0
1981-08-30 21:39:56.400 ,6,0,0.,24.0,0.,24.0
1981-08-30 21:40:20.400 ,5,1,0.,24.0,0.,24.0
1981-08-30 21:40:44.400 ,5,0,0.,24.0,0.,24.0
1981-08-30 21:41:08.400 ,4,1,0.,24.0,0.,24.0
1981-08-30 21:41:32.400 ,4,0,0.,24.0,0.,24.0
1981-08-30 21:41:56.400 ,3,1,0.,24.0,0.,24.0
1981-08-30 21:42:20.400 ,3,0,0.,24.0,0.,24.0
1981-08-30 21:42:44.400 ,0,0,0.,24.0,0.,24.0
1981-08-30 21:43:08.400 ,0,0,0.,24.0,0.,24.0
1981-08-30 21:43:32.400 ,1,1,0.,24.0,0.,24.0
1981-08-30 21:43:56.400 ,1,0,0.,24.0,0.,24.0
1981-08-30 21:44:20.400 ,0,1,0.,24.0,0.,24.0
1981-08-30 21:44:44.400 ,0,0,0.,24.0,0.,24.0
1981-08-30 21:45:08.400 ,0,1,0.,24.0,0.,24.0
1981-08-30 21:45:32.400 ,0,0,0.,24.0,0.,24.0
1981-08-30 21:45:56.400 ,1,1,0.,24.0,0.,24.0
1981-08-30 21:46:20.400 ,1,0,0.,24.0,0.,24.0
1981-08-30 21:46:44.400 ,2,1,0.,24.0,0.,24.0
1981-08-30 21:47:08.400 ,2,0,0.,24.0,0.,24.0
1981-08-30 21:47:32.400 ,3,1,0.,24.0,0.,24.0
1981-08-30 21:47:56.400 ,4,1,0.,24.0,0.,24.0
1981-08-30 21:48:20.400 ,5,1,0.,24.0,0.,24.0
1981-08-30 21:48:44.400 ,6,1,0.,24.0,0.,24.0
1981-08-30 21:49:08.400 ,7,1,0.,24.0,0.,24.0
1981-08-30 21:49:32.400 ,7,1,0.,24.0,0.,24.0
1981-08-30 21:49:56.400 ,6,1,0.,24.0,0.,24.0
1981-08-30 21:50:20.400 ,5,1,0.,24.0,0.,24.0
1981-08-30 21:50:44.400 ,4,1,0.,24.0,0.,24.0
1981-08-30 21:51:08.400 ,3,1,0.,24.0,0.,24.0
1981-08-30 21:51:32.400 ,2,1,0.,24.0,0.,24.0
1981-08-30 21:51:56.400 ,1,1,0.,24.0,0.,24.0
1981-08-30 21:52:20.400 ,0,1,0.,24.0,0.,24.0
1981-08-30 21:52:44.400 ,0,1,0.,24.0,0.,24.0
1981-08-30 21:53:08.400 ,1,1,0.,24.0,0.,24.0
1981-08-30 21:53:32.400 ,2,1,0.,24.0,0.,24.0
1981-08-30 21:53:56.400 ,3,1,0.,24.0,0.,24.0
1981-08-30 21:54:20.400 ,3,0,0.,24.0,0.,24.0
1981-08-30 21:54:44.400 ,4,1,0.,24.0,0.,24.0
1981-08-30 21:55:08.400 ,4,0,0.,24.0,0.,24.0
1981-08-30 21:55:32.400 ,5,1,0.,24.0,0.,24.0
1981-08-30 21:55:56.400 ,5,0,0.,24.0,0.,24.0
1981-08-30 21:56:20.400 ,6,1,0.,24.0,0.,24.0
1981-08-30 21:56:44.400 ,6,0,0.,24.0,0.,24.0
1981-08-30 21:57:08.400 ,7,1,0.,24.0,0.,24.0
1981-08-30 21:57:32.400 ,7,0,0.,24.0,0.,24.0
1981-08-30 21:57:56.400 ,7,1,0.,24.0,0.,24.0
1981-08-30 21:58:20.400 ,7,0,0.,24.0,0.,24.0
1981-08-30 21:58:44.400 ,6,1,0.,24.0,0.,24.0
1981-08-30 21:59:08.400 ,6,0,0.,24.0,0.,24.0
1981-08-30 21:59:32.400 ,5,1,0.,24.0,0.,24.0
1981-08-30 21:59:56.400 ,5,0,0.,24.0,0.,24.0
1981-08-30 22:00:20.400 ,4,1,0.,24.0,0.,24.0
1981-08-30 22:00:44.400 ,4,0,0.,24.0,0.,24.0
1981-08-30 22:01:08.400 ,3,1,0.,24.0,0.,24.0
1981-08-30 22:01:32.400 ,3,0,0.,24.0,0.,24.0
1981-08-30 22:01:56.400 ,2,1,0.,24.0,0.,24.0
1981-08-30 22:02:20.400 ,2,0,0.,24.0,0.,24.0
1981-08-30 22:02:44.400 ,1,1,0.,24.0,0.,24.0
1981-08-30 22:03:08.400 ,1,0,0.,24.0,0.,24.0
1981-08-30 22:03:32.400 ,0,1,0.,24.0,0.,24.0
1981-08-30 22:03:56.400 ,0,0,0.,24.0,0.,24.0
1981-08-30 22:04:20.400 ,0,1,0.,24.0,0.,24.0
1981-08-30 22:04:44.400 ,0,0,0.,24.0,0.,24.0
1981-08-30 22:05:08.400 ,1,1,0.,24.0,0.,24.0
1981-08-30 22:05:32.400 ,1,0,0.,24.0,0.,24.0
1981-08-30 22:05:56.400 ,2,1,0.,24.0,0.,24.0
1981-08-30 22:06:20.400 ,2,0,0.,24.0,0.,24.0
1981-08-30 22:06:44.400 ,3,1,0.,24.0,0.,24.0
1981-08-30 22:07:08.400 ,4,1,0.,24.0,0.,24.0
1981-08-30 22:07:32.400 ,5,1,0.,24.0,0.,24.0
1981-08-30 22:07:56.400 ,6,1,0.,24.0,0.,24.0
1981-08-30 22:08:20.400 ,7,1,0.,24.0,0.,24.0
1981-08-30 22:08:44.400 ,7,1,0.,24.0,0.,24.0
1981-08-30 22:09:08.400 ,6,1,0.,24.0,0.,24.0
1981-08-30 22:09:32.400 ,5,1,0.,24.0,0.,24.0
1981-08-30 22:09:56.400 ,4,1,0.,24.0,0.,24.0
1981-08-30 22:10:20.400 ,3,1,0.,24.0,0.,24.0
1981-08-30 22:10:44.400 ,2,1,0.,24.0,0.,24.0
1981-08-30 22:11:08.400 ,1,1,0.,24.0,0.,24.0
1981-08-30 22:11:32.400 ,0,1,0.,24.0,0.,24.0
1981-08-30 22:11:56.400 ,0,1,0.,24.0,0.,24.0
1981-08-30 22:12:20.400 ,1,1,0.,24.0,0.,24.0
1981-08-30 22:12:44.400 ,2,1,0.,24.0,0.,24.0
1981-08-30 22:13:08.400 ,3,1,0.,24.0,0.,24.0
1981-08-30 22:13:32.400 ,3,0,0.,24.0,0.,24.0
1981-08-30 22:13:56.400 ,4,1,0.,24.0,0.,24.0
1981-08-30 22:14:20.400 ,4,0,0.,24.0,0.,24.0
1981-08-30 22:14:44.400 ,5,1,0.,24.0,0.,24.0
1981-08-30 22:15:08.400 ,5,0,0.,24.0,0.,24.0
1981-08-30 22:15:32.400 ,6,1,0.,24.0,0.,24.0
1981-08-30 22:15:56.400 ,6,0,0.,24.0,0.,24.0
1981-08-30 22:16:20.400 ,7,1,0.,24.0,0.,24.0
1981-08-30 22:16:44.400 ,7,0,0.,24.0,0.,24.0
1981-08-30 22:17:08.400 ,7,1,0.,24.0,0.,24.0
1981-08-30 22:17:32.400 ,7,0,0.,24.0,0.,24.0
1981-08-30 22:17:56.400 ,6,1,0.,24.0,0.,24.0
1981-08-30 22:18:20.400 ,6,0,0.,24.0,0.,24.0
1981-08-30 22:18:44.400 ,5,1,0.,24.0,0.,24.0
1981-08-30 22:19:08.400 ,5,0,0.,24.0,0.,24.0
1981-08-30 22:19:32.400 ,4,1,0.,24.0,0.,24.0
1981-08-30 22:19:56.400 ,4,0,0.,24.0,0.,24.0
1981-08-30 22:20:20.400 ,3,1,0.,24.0,0.,24.0
1981-08-30 22:20:44.400 ,3,0,0.,24.0,0.,24.0
1981-08-30 22:21:08.400 ,2,1,0.,24.0,0.,24.0
1981-08-30 22:21:32.400 ,2,0,0.,24.0,0.,24.0
1981-08-30 22:21:56.400 ,1,1,0.,24.0,0.,24.0
1981-08-30 22:22:20.400 ,1,0,0.,24.0,0.,24.0
1981-08-30 22:24:20.400 ,0,0,0.,24.0,0.,24.0
1981-08-30 22:24:44.400 ,0,0,0.,24.0,0.,24.0
1981-08-30 22:25:08.400 ,0,0,,0,,0
1981-08-30 22:25:32.400 ,0,0,0.,24.0,0.,24.0
1981-08-30 22:25:32.400 ,0,0,0.,24.0,0.,24.0
1981-08-30 22:25:56.400 ,3,1,0.,24.0,0.,24.0
1981-08-30 22:26:20.400 ,4,1,0.,24.0,0.,24.0
1981-08-30 22:26:44.400 ,5,1,0.,24.0,0.,24.0
1981-08-30 22:27:08.400 ,6,1,0.,24.0,0.,24.0
1981-08-30 22:27:32.400 ,7,1,0.,24.0,0.,24.0
1981-08-30 22:27:56.400 ,7,1,0.,24.0,0.,24.0
1981-08-30 22:28:20.400 ,6,1,0.,24.0,0.,24.0
1981-08-30 22:28:44.400 ,5,1,0.,24.0,0.,24.0
1981-08-30 22:29:08.400 ,4,1,0.,24.0,0.,24.0
1981-08-30 22:29:32.400 ,3,1,0.,24.0,0.,24.0
1981-08-30 22:29:56.400 ,2,1,0.,24.0,0.,24.0
1981-08-30 22:30:20.400 ,1,1,0.,24.0,0.,24.0
1981-08-30 22:30:44.400 ,0,1,0.,24.0,0.,24.0
1981-08-30 22:31:08.400 ,0,1,0.,24.0,0.,24.0
1981-08-30 22:31:32.400 ,1,1,0.,24.0,0.,24.0
1981-08-30 22:31:56.400 ,2,1,0.,24.0,0.,24.0
1981-08-30 22:32:20.400 ,3,1,0.,24.0,0.,24.0
1981-08-30 22:32:44.400 ,3,0,0.,24.0,0.,24.0
1981-08-30 22:33:08.400 ,4,1,0.,24.0,0.,24.0
1981-08-30 22:33:32.400 ,4,0,0.,24.0,0.,24.0
1981-08-30 22:33:56.400 ,0,0,0.,24.0,0.,24.0
1981-08-30 22:34:20.400 ,0,0,0.,24.0,0.,24.0
1981-08-30 22:34:44.400 ,6,1,0.,24.0,0.,24.0
1981-08-30 22:35:08.400 ,6,0,0.,24.0,0.,24.0
1981-08-30 22:35:32.400 ,7,1,0.,24.0,0.,24.0
1981-08-30 22:35:56.400 ,7,0,0.,24.0,0.,24.0
1981-08-30 22:36:20.400 ,7,1,0.,24.0,0.,24.0
1981-08-30 22:36:44.400 ,7,0,0.,24.0,0.,24.0
1981-08-30 22:37:08.400 ,6,1,0.,24.0,0.,24.0
1981-08-30 22:37:32.400 ,6,0,0.,24.0,0.,24.0
1981-08-30 22:37:56.400 ,5,1,0.,24.0,0.,24.0
1981-08-30 22:38:20.400 ,0,0,,0,,0
1981-08-30 22:39:37.800 ,0,0,0.,24.0,0.,24.0
1981-08-30 22:39:56.400 ,0,0,0.,24.0,0.,24.0
1981-08-30 22:40:20.400 ,2,1,0.,24.0,0.,24.0
1981-08-30 22:40:44.400 ,2,0,0.,24.0,0.,24.0
1981-08-30 22:41:08.400 ,1,1,0.,24.0,0.,24.0
1981-08-30 22:41:32.400 ,1,0,0.,24.0,0.,24.0
1981-08-30 22:41:56.400 ,0,1,0.,24.0,0.,24.0
1981-08-30 22:42:20.400 ,0,0,0.,24.0,0.,24.0
1981-08-30 22:42:44.400 ,0,1,0.,24.0,0.,24.0
1981-08-30 22:43:08.400 ,0,0,0.,24.0,0.,24.0
1981-08-30 22:43:32.400 ,1,1,0.,24.0,0.,24.0
1981-08-30 22:43:56.400 ,1,0,0.,24.0,0.,24.0
1981-08-30 22:44:20.400 ,2,1,0.,24.0,0.,24.0
1981-08-30 22:44:44.400 ,2,0,0.,24.0,0.,24.0
1981-08-30 22:45:08.400 ,3,1,0.,24.0,0.,24.0
1981-08-30 22:45:32.400 ,4,1,0.,24.0,0.,24.0
1981-08-30 22:45:56.400 ,5,1,0.,24.0,0.,24.0
1981-08-30 22:46:20.400 ,6,1,0.,24.0,0.,24.0
1981-08-30 22:46:44.400 ,7,1,0.,24.0,0.,24.0
1981-08-30 22:47:08.400 ,0,0,0.,24.0,0.,24.0
1981-08-30 22:47:46.200 ,0,0,0.,24.0,0.,24.0
1981-08-30 22:47:56.400 ,5,1,0.,24.0,0.,24.0
1981-08-30 22:48:20.400 ,4,1,0.,24.0,0.,24.0
1981-08-30 22:48:44.400 ,3,1,0.,24.0,0.,24.0
1981-08-30 22:49:08.400 ,2,1,0.,24.0,0.,24.0
1981-08-30 22:49:32.400 ,1,1,0.,24.0,0.,24.0
1981-08-30 22:49:56.400 ,0,1,0.,24.0,0.,24.0
1981-08-30 22:50:20.400 ,0,1,0.,24.0,0.,24.0
1981-08-30 22:50:44.400 ,1,1,0.,24.0,0.,24.0
1981-08-30 22:51:08.400 ,2,1,0.,24.0,0.,24.0
1981-08-30 22:51:32.400 ,3,1,0.,24.0,0.,24.0
1981-08-30 22:51:56.400 ,3,0,0.,24.0,0.,24.0
1981-08-30 22:52:20.400 ,4,1,0.,24.0,0.,24.0
1981-08-30 22:52:44.400 ,4,0,0.,24.0,0.,24.0
1981-08-30 22:53:08.400 ,5,1,0.,24.0,0.,24.0
1981-08-30 22:53:32.400 ,5,0,0.,24.0,0.,24.0
1981-08-30 22:53:56.400 ,6,1,0.,24.0,0.,24.0
1981-08-30 22:54:20.400 ,6,0,0.,24.0,0.,24.0
1981-08-30 22:54:44.400 ,7,1,0.,24.0,0.,24.0
1981-08-30 22:55:08.400 ,7,0,0.,24.0,0.,24.0
1981-08-30 22:55:32.400 ,7,1,0.,24.0,0.,24.0
1981-08-30 22:55:56.400 ,7,0,0.,24.0,0.,24.0
1981-08-30 22:56:20.400 ,6,1,0.,24.0,0.,24.0
1981-08-30 22:56:44.400 ,0,0,0.,24.0,0.,24.0
1981-08-30 22:57:33.000 ,0,0,0.,24.0,0.,24.0
1981-08-30 22:57:56.400 ,4,1,0.,24.0,0.,24.0
1981-08-30 22:58:20.400 ,4,0,0.,24.0,0.,24.0
1981-08-30 22:58:44.400 ,3,1,0.,24.0,0.,24.0
1981-08-30 22:59:08.400 ,3,0,0.,24.0,0.,24.0
1981-08-30 22:59:32.400 ,2,1,0.,24.0,0.,24.0
1981-08-30 22:59:56.400 ,2,0,0.,24.0,0.,24.0
1981-08-30 23:00:20.400 ,1,1,0.,24.0,0.,24.0
1981-08-30 23:00:44.400 ,1,0,0.,24.0,0.,24.0
1981-08-30 23:01:08.400 ,0,1,0.,24.0,0.,24.0
1981-08-30 23:01:32.400 ,0,0,0.,24.0,0.,24.0
1981-08-30 23:01:56.400 ,0,1,0.,24.0,0.,24.0
1981-08-30 23:02:20.400 ,0,0,0.,24.0,0.,24.0
1981-08-30 23:02:44.400 ,1,1,0.,24.0,0.,24.0
1981-08-30 23:03:08.400 ,1,0,0.,24.0,0.,24.0
1981-08-30 23:03:32.400 ,2,1,0.,24.0,0.,24.0
1981-08-30 23:03:56.400 ,2,0,0.,24.0,0.,24.0
1981-08-30 23:04:20.400 ,3,1,0.,24.0,0.,24.0
1981-08-30 23:04:44.400 ,4,1,0.,24.0,0.,24.0
1981-08-30 23:05:08.400 ,5,1,0.,24.0,0.,24.0
1981-08-30 23:05:32.400 ,6,1,0.,24.0,0.,24.0
1981-08-30 23:05:56.400 ,7,1,0.,24.0,0.,24.0
1981-08-30 23:06:20.400 ,7,1,0.,24.0,0.,24.0
1981-08-30 23:06:44.400 ,6,1,0.,24.0,0.,24.0
1981-08-30 23:07:08.400 ,5,1,0.,24.0,0.,24.0
1981-08-30 23:07:32.400 ,4,1,0.,24.0,0.,24.0
1981-08-30 23:07:56.400 ,3,1,0.,24.0,0.,24.0
1981-08-30 23:08:20.400 ,2,1,0.,24.0,0.,24.0
1981-08-30 23:08:44.400 ,1,1,0.,24.0,0.,24.0
1981-08-30 23:09:08.400 ,0,1,0.,24.0,0.,24.0
1981-08-30 23:09:32.400 ,0,1,0.,24.0,0.,24.0
1981-08-30 23:09:56.400 ,1,1,0.,24.0,0.,24.0
1981-08-30 23:10:20.400 ,2,1,0.,24.0,0.,24.0
1981-08-30 23:10:44.400 ,3,1,0.,24.0,0.,24.0
1981-08-30 23:11:08.400 ,3,0,0.,24.0,0.,24.0
1981-08-30 23:11:32.400 ,4,1,0.,24.0,0.,24.0
1981-08-30 23:11:56.400 ,4,0,0.,24.0,0.,24.0
1981-08-30 23:12:20.400 ,5,1,0.,24.0,0.,24.0
1981-08-30 23:12:44.400 ,5,0,0.,24.0,0.,24.0
1981-08-30 23:13:08.400 ,6,1,0.,24.0,0.,24.0
1981-08-30 23:13:32.400 ,6,0,0.,24.0,0.,24.0
1981-08-30 23:13:56.400 ,7,1,0.,24.0,0.,24.0
1981-08-30 23:14:20.400 ,7,0,0.,24.0,0.,24.0
1981-08-30 23:14:44.400 ,7,1,0.,24.0,0.,24.0
1981-08-30 23:15:08.400 ,7,0,0.,24.0,0.,24.0
1981-08-30 23:15:32.400 ,6,1,0.,24.0,0.,24.0
1981-08-30 23:15:56.400 ,6,0,0.,24.0,0.,24.0
1981-08-30 23:16:20.400 ,5,1,0.,24.0,0.,24.0
1981-08-30 23:16:44.400 ,5,0,0.,24.0,0.,24.0
1981-08-30 23:17:08.400 ,4,1,0.,24.0,0.,24.0
1981-08-30 23:17:32.400 ,4,0,0.,24.0,0.,24.0
1981-08-30 23:17:56.400 ,3,1,0.,24.0,0.,24.0
1981-08-30 23:18:20.400 ,3,0,0.,24.0,0.,24.0
1981-08-30 23:18:44.400 ,2,1,0.,24.0,0.,24.0
1981-08-30 23:19:08.400 ,2,0,0.,24.0,0.,24.0
1981-08-30 23:19:32.400 ,1,1,0.,24.0,0.,24.0
1981-08-30 23:19:56.400 ,1,0,0.,24.0,0.,24.0
1981-08-30 23:20:20.400 ,0,1,0.,24.0,0.,24.0
1981-08-30 23:20:44.400 ,0,0,0.,24.0,0.,24.0
1981-08-30 23:21:08.400 ,0,1,0.,24.0,0.,24.0
1981-08-30 23:21:32.400 ,0,0,0.,24.0,0.,24.0
1981-08-30 23:21:56.400 ,1,1,0.,24.0,0.,24.0
1981-08-30 23:22:20.400 ,1,0,0.,24.0,0.,24.0
1981-08-30 23:22:44.400 ,2,1,0.,24.0,0.,24.0
1981-08-30 23:23:08.400 ,2,0,0.,24.0,0.,24.0
1981-08-30 23:23:32.400 ,3,1,0.,24.0,0.,24.0
1981-08-30 23:23:56.400 ,0,0,0.,24.0,0.,24.0
1981-08-30 23:54:26.390 ,0,0,0.,24.0,0.,24.0
1981-08-30 23:54:44.390 ,3,1,0.,24.0,0.,24.0
1981-08-30 23:55:08.390 ,3,0,0.,24.0,0.,24.0
1981-08-30 23:55:32.390 ,4,1,0.,24.0,0.,24.0
1981-08-30 23:55:56.390 ,4,0,0.,24.0,0.,24.0
1981-08-30 23:56:20.390 ,5,1,0.,24.0,0.,24.0
1981-08-30 23:56:44.390 ,5,0,0.,24.0,0.,24.0
1981-08-30 23:57:08.390 ,6,1,0.,24.0,0.,24.0
1981-08-30 23:57:32.390 ,6,0,0.,24.0,0.,24.0
1981-08-30 23:57:56.390 ,7,1,0.,24.0,0.,24.0
1981-08-30 23:58:20.390 ,7,0,0.,24.0,0.,24.0
1981-08-30 23:58:44.390 ,7,1,0.,24.0,0.,24.0
1981-08-30 23:59:08.390 ,7,0,0.,24.0,0.,24.0
1981-08-30 23:59:32.390 ,6,1,0.,24.0,0.,24.0
1981-08-30 23:59:56.390 ,6,0,0.,24.0,0.,24.0
1981-08-31 00:00:20.390 ,5,1,0.,24.0,0.,24.0
